TimeEDT,TemperatureF,Dew PointF,Humidity,Sea Level PressureIn,VisibilityMPH,Wind Direction,Wind SpeedMPH,Gust SpeedMPH,PrecipitationIn,Events,Conditions,WindDirDegrees,DateUTC
12:56 AM,64.9,64.0,97,29.98,4.0,NNE,9.2,-,0.10,Rain,Rain,20,2013-07-26 04:56:00
1:56 AM,64.9,64.0,97,29.96,7.0,NNE,9.2,-,0.05,Rain,Light Rain,30,2013-07-26 05:56:00
2:56 AM,64.9,64.0,97,29.95,3.0,North,5.8,-,0.12,Rain,Heavy Rain,360,2013-07-26 06:56:00
3:23 AM,64.4,64.4,100,29.94,5.0,NNE,5.8,-,0.06,Rain,Rain,20,2013-07-26 07:23:00
3:33 AM,64.4,64.4,100,29.94,7.0,North,5.8,-,0.08,Rain,Light Rain,360,2013-07-26 07:33:00
3:56 AM,64.9,64.0,97,29.94,7.0,North,9.2,-,0.10,Rain,Light Rain,10,2013-07-26 07:56:00
4:56 AM,66.0,64.9,96,29.92,4.0,North,8.1,-,0.11,Rain,Rain,10,2013-07-26 08:56:00
5:29 AM,64.4,64.4,100,29.91,6.0,North,12.7,-,0.02,Rain,Rain,10,2013-07-26 09:29:00
5:43 AM,64.4,64.4,100,29.90,1.8,North,12.7,-,0.11,Rain,Heavy Rain,10,2013-07-26 09:43:00
5:56 AM,64.9,64.0,97,29.90,1.5,North,12.7,-,0.19,Rain,Heavy Rain,10,2013-07-26 09:56:00
6:07 AM,64.4,64.4,100,29.90,1.5,NNE,11.5,-,0.04,Rain,Rain,20,2013-07-26 10:07:00
6:16 AM,64.4,64.4,100,29.89,2.5,North,11.5,-,0.05,Rain,Rain,10,2013-07-26 10:16:00
6:24 AM,64.4,64.4,100,29.89,3.0,NNE,12.7,-,0.06,Rain,Light Rain,20,2013-07-26 10:24:00
6:38 AM,64.4,64.4,100,29.90,2.5,North,8.1,-,0.07,Rain,Light Rain,360,2013-07-26 10:38:00
6:56 AM,64.9,64.0,97,29.89,2.0,North,13.8,19.6,0.09,Rain,Rain,10,2013-07-26 10:56:00
7:33 AM,64.4,62.6,94,29.87,3.0,North,15.0,24.2,0.07,Rain,Rain,10,2013-07-26 11:33:00
7:56 AM,64.0,63.0,96,29.87,3.0,North,12.7,20.7,0.10,Rain,Rain,360,2013-07-26 11:56:00
8:56 AM,64.9,64.0,97,29.88,2.5,North,12.7,-,0.09,Rain,Rain,350,2013-07-26 12:56:00
9:06 AM,64.4,64.4,100,29.88,1.5,NNW,11.5,-,0.03,Rain,Heavy Rain,340,2013-07-26 13:06:00
9:26 AM,64.4,64.4,100,29.88,0.8,North,12.7,19.6,0.25,Rain,Heavy Rain,350,2013-07-26 13:26:00
9:32 AM,64.4,64.4,100,29.88,1.0,North,11.5,19.6,0.28,Rain,Heavy Rain,350,2013-07-26 13:32:00
9:46 AM,64.4,64.4,100,29.86,3.0,NNW,11.5,20.7,0.31,Rain,Rain,340,2013-07-26 13:46:00
9:56 AM,64.9,64.0,97,29.85,4.0,North,15.0,25.3,0.31,Rain,Light Rain,350,2013-07-26 13:56:00
10:04 AM,64.4,64.4,100,29.85,5.0,North,17.3,24.2,0.01,Rain,Light Rain,350,2013-07-26 14:04:00
10:56 AM,64.9,64.0,97,29.87,5.0,North,17.3,25.3,0.01,Rain,Light Rain,360,2013-07-26 14:56:00
11:56 AM,64.9,63.0,93,29.86,3.0,North,17.3,33.4,0.00,Rain,Light Rain,350,2013-07-26 15:56:00
12:35 PM,64.4,62.6,94,29.85,2.0,North,19.6,26.5,0.00,Rain,Light Rain,350,2013-07-26 16:35:00
12:56 PM,64.9,63.0,93,29.86,1.8,North,16.1,31.1,0.00,Rain,Light Rain,350,2013-07-26 16:56:00
1:06 PM,64.4,62.6,94,29.85,2.5,North,21.9,32.2,0.00,Rain,Light Rain,350,2013-07-26 17:06:00
1:13 PM,64.4,64.4,100,29.85,1.8,North,16.1,32.2,0.00,Rain,Light Rain,350,2013-07-26 17:13:00
1:56 PM,64.9,64.0,97,29.85,1.8,North,19.6,31.1,0.01,Rain,Light Rain,350,2013-07-26 17:56:00
2:18 PM,64.4,64.4,100,29.85,4.0,North,20.7,29.9,0.00,,Overcast,350,2013-07-26 18:18:00
2:56 PM,64.9,64.0,97,29.87,4.0,North,16.1,29.9,0.00,Rain,Light Rain,350,2013-07-26 18:56:00
3:03 PM,64.4,64.4,100,29.87,2.5,NNW,15.0,24.2,0.00,Rain,Light Rain,340,2013-07-26 19:03:00
3:56 PM,66.0,64.9,96,29.88,1.2,NNW,19.6,26.5,0.02,,Overcast,340,2013-07-26 19:56:00
4:56 PM,66.0,64.9,96,29.91,1.5,NNW,11.5,19.6,0.07,Rain,Rain,340,2013-07-26 20:56:00
5:56 PM,68.0,66.0,93,29.93,4.0,WNW,9.2,-,0.08,Rain,Light Rain,290,2013-07-26 21:56:00
6:26 PM,68.0,66.2,94,29.94,8.0,West,11.5,18.4,0.00,,Overcast,280,2013-07-26 22:26:00
6:37 PM,68.0,66.2,94,29.95,8.0,West,9.2,-,0.00,Rain,Light Rain,280,2013-07-26 22:37:00
6:56 PM,66.9,66.0,97,29.96,3.0,WNW,10.4,17.3,0.01,Rain,Light Rain,300,2013-07-26 22:56:00
7:04 PM,66.2,66.2,100,29.95,2.5,WNW,8.1,16.1,0.01,Rain,Light Rain,300,2013-07-26 23:04:00
7:12 PM,66.2,66.2,100,29.95,3.0,WNW,10.4,-,0.02,Rain,Light Rain,300,2013-07-26 23:12:00
7:28 PM,66.2,66.2,100,29.95,5.0,NW,10.4,18.4,0.02,Rain,Light Rain,310,2013-07-26 23:28:00
7:56 PM,66.9,66.0,97,29.97,10.0,WNW,5.8,-,0.03,Rain,Light Rain,290,2013-07-26 23:56:00
8:03 PM,66.2,66.2,100,29.97,10.0,WNW,5.8,-,0.00,,Overcast,290,2013-07-27 00:03:00
8:29 PM,66.2,64.4,94,29.96,10.0,NNW,9.2,-,0.00,,Mostly Cloudy,330,2013-07-27 00:29:00
8:56 PM,66.9,64.9,93,29.98,10.0,WNW,6.9,-,0.00,,Partly Cloudy,290,2013-07-27 00:56:00
9:56 PM,66.9,66.0,97,29.99,10.0,SW,4.6,-,0.00,,Partly Cloudy,230,2013-07-27 01:56:00
10:56 PM,68.0,66.0,93,30.01,10.0,SW,9.2,-,0.00,,Mostly Cloudy,230,2013-07-27 02:56:00
11:56 PM,66.9,64.9,93,30.01,10.0,WSW,8.1,-,N/A,,Scattered Clouds,240,2013-07-27 03:56:00